Location: Endfield
(51.6667°N, 0.0667°W)
Time: 12:14:34
(UTC+00:00)

ACS3 Solar Sail - Visible Passes

Search period start: 20 July 2024 00:00
Search period end: 30 July 2024 00:00
Orbit: 993 x 1023 km, 97.4° (Epoch: 19 July)

Date Brightness Start Highest point End Pass type
(mag) Time Alt. Az. Time Alt. Az. Time Alt. Az.
20 Jul 5.8 21:44:01 10° SSW 21:49:53 43° W 21:55:51 10° NNW visible
21 Jul 6.6 22:19:41 10° SW 22:24:42 25° W 22:29:47 10° NNW visible
22 Jul 5.1 21:08:13 10° S 21:14:25 71° W 21:20:43 10° NNW visible
22 Jul 7.1 22:56:31 10° WSW 22:59:43 14° W 23:02:57 10° NW visible
23 Jul 5.9 21:43:11 10° SSW 21:49:02 42° W 21:54:58 10° NNW visible
24 Jul 4.9 20:32:55 10° SSE 20:39:06 72° ENE 20:45:23 10° N visible
24 Jul 6.7 22:18:53 10° SW 22:23:51 25° W 22:28:53 10° NNW visible
25 Jul 5.2 21:07:21 10° S 21:13:33 70° W 21:19:51 10° NNW visible
25 Jul 7.2 22:55:49 10° WSW 22:58:53 14° W 23:01:59 10° NW visible
26 Jul 5.9 21:42:21 10° SSW 21:48:10 41° W 21:54:06 10° NNW visible
27 Jul 4.9 20:32:02 10° SSE 20:38:15 74° ENE 20:44:32 10° N visible
27 Jul 6.7 22:18:05 10° SW 22:23:01 24° W 22:27:59 10° NW visible
28 Jul 5.2 21:06:29 10° S 21:12:41 68° W 21:18:59 10° NNW visible
28 Jul 7.2 22:55:07 10° WSW 22:58:03 13° W 23:01:01 10° NW visible
29 Jul 6.0 21:41:31 10° SSW 21:47:19 40° W 21:53:13 10° NNW visible
